Year,Month,Day,Hour,Minute,Value (Times are PST for temperature in C)
2010,08,15,00,00,17.40
2010,08,15,00,01,17.40
2010,08,15,00,02,17.40
2010,08,15,00,03,17.40
2010,08,15,00,04,17.30
2010,08,15,00,05,17.30
2010,08,15,00,06,17.30
2010,08,15,00,07,17.30
2010,08,15,00,08,17.30
2010,08,15,00,09,17.20
2010,08,15,00,10,17.20
2010,08,15,00,11,17.20
2010,08,15,00,12,17.20
2010,08,15,00,13,17.10
2010,08,15,00,14,17.10
2010,08,15,00,15,17.10
2010,08,15,00,16,17.10
2010,08,15,00,17,17.10
2010,08,15,00,18,17.00
2010,08,15,00,19,17.00
2010,08,15,00,20,17.00
2010,08,15,00,21,17.00
2010,08,15,00,22,16.90
2010,08,15,00,23,16.90
2010,08,15,00,24,16.90
2010,08,15,00,25,16.90
2010,08,15,00,26,16.90
2010,08,15,00,27,16.90
2010,08,15,00,28,16.90
2010,08,15,00,29,16.90
2010,08,15,00,30,16.80
2010,08,15,00,31,16.80
2010,08,15,00,32,16.80
2010,08,15,00,33,16.80
2010,08,15,00,34,16.80
2010,08,15,00,35,16.90
2010,08,15,00,36,16.90
2010,08,15,00,37,16.80
2010,08,15,00,38,16.80
2010,08,15,00,39,16.80
2010,08,15,00,40,16.80
2010,08,15,00,41,16.80
2010,08,15,00,42,16.80
2010,08,15,00,43,16.70
2010,08,15,00,44,16.70
2010,08,15,00,45,16.70
2010,08,15,00,46,16.70
2010,08,15,00,47,16.70
2010,08,15,00,48,16.60
2010,08,15,00,49,16.60
2010,08,15,00,50,16.60
2010,08,15,00,51,16.60
2010,08,15,00,52,16.60
2010,08,15,00,53,16.50
2010,08,15,00,54,16.50
2010,08,15,00,55,16.50
2010,08,15,00,56,16.40
2010,08,15,00,57,16.40
2010,08,15,00,58,16.40
2010,08,15,00,59,16.40
2010,08,15,01,00,16.40
2010,08,15,01,01,16.30
2010,08,15,01,02,16.30
2010,08,15,01,03,16.30
2010,08,15,01,04,16.30
2010,08,15,01,05,16.30
2010,08,15,01,06,16.30
2010,08,15,01,07,16.30
2010,08,15,01,08,16.30
2010,08,15,01,09,16.30
2010,08,15,01,10,16.30
2010,08,15,01,11,16.30
2010,08,15,01,12,16.20
2010,08,15,01,13,16.20
2010,08,15,01,14,16.20
2010,08,15,01,15,16.20
2010,08,15,01,16,16.20
2010,08,15,01,17,16.20
2010,08,15,01,18,16.20
2010,08,15,01,19,16.20
2010,08,15,01,20,16.10
2010,08,15,01,21,16.10
2010,08,15,01,22,16.10
2010,08,15,01,23,16.10
2010,08,15,01,24,16.10
2010,08,15,01,25,16.10
2010,08,15,01,26,16.10
2010,08,15,01,27,16.10
2010,08,15,01,28,16.10
2010,08,15,01,29,16.10
2010,08,15,01,30,16.10
2010,08,15,01,31,16.10
2010,08,15,01,32,16.10
2010,08,15,01,33,16.10
2010,08,15,01,34,16.00
2010,08,15,01,35,16.00
2010,08,15,01,36,16.00
2010,08,15,01,37,16.00
2010,08,15,01,38,15.90
2010,08,15,01,39,15.90
2010,08,15,01,40,15.90
2010,08,15,01,41,15.90
2010,08,15,01,42,15.90
2010,08,15,01,43,15.90
2010,08,15,01,44,15.90
2010,08,15,01,45,15.80
2010,08,15,01,46,15.80
2010,08,15,01,47,15.80
2010,08,15,01,48,15.80
2010,08,15,01,49,15.80
2010,08,15,01,50,15.70
2010,08,15,01,51,15.70
2010,08,15,01,52,15.70
2010,08,15,01,53,15.70
2010,08,15,01,54,15.70
2010,08,15,01,55,15.70
2010,08,15,01,56,15.70
2010,08,15,01,57,15.70
2010,08,15,01,58,15.70
2010,08,15,01,59,15.70
2010,08,15,02,00,15.70
2010,08,15,02,01,15.70
2010,08,15,02,02,15.70
2010,08,15,02,03,15.70
2010,08,15,02,04,15.70
2010,08,15,02,05,15.60
2010,08,15,02,06,15.60
2010,08,15,02,07,15.60
2010,08,15,02,08,15.60
2010,08,15,02,09,15.60
2010,08,15,02,10,15.60
2010,08,15,02,11,15.60
2010,08,15,02,12,15.60
2010,08,15,02,13,15.60
2010,08,15,02,14,15.50
2010,08,15,02,15,15.50
2010,08,15,02,16,15.50
2010,08,15,02,17,15.50
2010,08,15,02,18,15.50
2010,08,15,02,19,15.50
2010,08,15,02,20,15.50
2010,08,15,02,21,15.50
2010,08,15,02,22,15.50
2010,08,15,02,23,15.50
2010,08,15,02,24,15.40
2010,08,15,02,25,15.40
2010,08,15,02,26,15.40
2010,08,15,02,27,15.40
2010,08,15,02,28,15.40
2010,08,15,02,29,15.40
2010,08,15,02,30,15.40
2010,08,15,02,31,15.30
2010,08,15,02,32,15.30
2010,08,15,02,33,15.30
2010,08,15,02,34,15.30
2010,08,15,02,35,15.30
2010,08,15,02,36,15.30
2010,08,15,02,37,15.30
2010,08,15,02,38,15.20
2010,08,15,02,39,15.20
2010,08,15,02,40,15.20
2010,08,15,02,41,15.20
2010,08,15,02,42,15.20
2010,08,15,02,43,15.20
2010,08,15,02,44,15.20
2010,08,15,02,45,15.20
2010,08,15,02,46,15.20
2010,08,15,02,47,15.20
2010,08,15,02,48,15.20
2010,08,15,02,49,15.20
2010,08,15,02,50,15.20
2010,08,15,02,51,15.10
2010,08,15,02,52,15.10
2010,08,15,02,53,15.10
2010,08,15,02,54,15.10
2010,08,15,02,55,15.10
2010,08,15,02,56,15.10
2010,08,15,02,57,15.00
2010,08,15,02,58,15.00
2010,08,15,02,59,15.00
2010,08,15,03,00,15.00
2010,08,15,03,01,15.00
2010,08,15,03,02,15.00
2010,08,15,03,03,15.00
2010,08,15,03,04,15.00
2010,08,15,03,05,15.00
2010,08,15,03,06,15.00
2010,08,15,03,07,15.00
2010,08,15,03,08,15.00
2010,08,15,03,09,15.00
2010,08,15,03,10,15.00
2010,08,15,03,11,15.00
2010,08,15,03,12,15.00
2010,08,15,03,13,15.00
2010,08,15,03,14,15.00
2010,08,15,03,15,15.00
2010,08,15,03,16,15.00
2010,08,15,03,17,15.00
2010,08,15,03,18,15.00
2010,08,15,03,19,15.00
2010,08,15,03,20,15.00
2010,08,15,03,21,15.00
2010,08,15,03,22,15.00
2010,08,15,03,23,15.00
2010,08,15,03,24,15.00
2010,08,15,03,25,15.00
2010,08,15,03,26,15.00
2010,08,15,03,27,15.00
2010,08,15,03,28,15.00
2010,08,15,03,29,15.00
2010,08,15,03,30,15.00
2010,08,15,03,31,15.00
2010,08,15,03,32,14.90
2010,08,15,03,33,14.90
2010,08,15,03,34,14.90
2010,08,15,03,35,14.90
2010,08,15,03,36,14.90
2010,08,15,03,37,14.90
2010,08,15,03,38,14.90
2010,08,15,03,39,14.90
2010,08,15,03,40,14.80
2010,08,15,03,41,14.80
2010,08,15,03,42,14.80
2010,08,15,03,43,14.80
2010,08,15,03,44,14.80
2010,08,15,03,45,14.80
2010,08,15,03,46,14.80
2010,08,15,03,47,14.80
2010,08,15,03,48,14.80
2010,08,15,03,49,14.80
2010,08,15,03,50,14.80
2010,08,15,03,51,14.80
2010,08,15,03,52,14.80
2010,08,15,03,53,14.80
2010,08,15,03,54,14.80
2010,08,15,03,55,14.70
2010,08,15,03,56,14.70
2010,08,15,03,57,14.70
2010,08,15,03,58,14.70
2010,08,15,03,59,14.70
2010,08,15,04,00,14.70
2010,08,15,04,01,14.70
2010,08,15,04,02,14.70
2010,08,15,04,03,14.70
2010,08,15,04,04,14.70
2010,08,15,04,05,14.60
2010,08,15,04,06,14.60
2010,08,15,04,07,14.60
2010,08,15,04,08,14.60
2010,08,15,04,09,14.60
2010,08,15,04,10,14.60
2010,08,15,04,11,14.60
2010,08,15,04,12,14.60
2010,08,15,04,13,14.60
2010,08,15,04,14,14.50
2010,08,15,04,15,14.50
2010,08,15,04,16,14.50
2010,08,15,04,17,14.50
2010,08,15,04,18,14.40
2010,08,15,04,19,14.40
2010,08,15,04,20,14.40
2010,08,15,04,21,14.40
2010,08,15,04,22,14.40
2010,08,15,04,23,14.40
2010,08,15,04,24,14.30
2010,08,15,04,25,14.30
2010,08,15,04,26,14.30
2010,08,15,04,27,14.30
2010,08,15,04,28,14.30
2010,08,15,04,29,14.20
2010,08,15,04,30,14.20
2010,08,15,04,31,14.20
2010,08,15,04,32,14.20
2010,08,15,04,33,14.20
2010,08,15,04,34,14.20
2010,08,15,04,35,14.20
2010,08,15,04,36,14.20
2010,08,15,04,37,14.10
2010,08,15,04,38,14.10
2010,08,15,04,39,14.10
2010,08,15,04,40,14.10
2010,08,15,04,41,14.10
2010,08,15,04,42,14.10
2010,08,15,04,43,14.10
2010,08,15,04,44,14.10
2010,08,15,04,45,14.10
2010,08,15,04,46,14.10
2010,08,15,04,47,14.10
2010,08,15,04,48,14.10
2010,08,15,04,49,14.10
2010,08,15,04,50,14.10
2010,08,15,04,51,14.10
2010,08,15,04,52,14.10
2010,08,15,04,53,14.10
2010,08,15,04,54,14.20
2010,08,15,04,55,14.20
2010,08,15,04,56,14.20
2010,08,15,04,57,14.20
2010,08,15,04,58,14.20
2010,08,15,04,59,14.20
2010,08,15,05,00,14.20
2010,08,15,05,01,14.20
2010,08,15,05,02,14.20
2010,08,15,05,03,14.20
2010,08,15,05,04,14.20
2010,08,15,05,05,14.30
2010,08,15,05,06,14.30
2010,08,15,05,07,14.30
2010,08,15,05,08,14.30
2010,08,15,05,09,14.30
2010,08,15,05,10,14.30
2010,08,15,05,11,14.30
2010,08,15,05,12,14.30
2010,08,15,05,13,14.30
2010,08,15,05,14,14.30
2010,08,15,05,15,14.30
2010,08,15,05,16,14.30
2010,08,15,05,17,14.30
2010,08,15,05,18,14.30
2010,08,15,05,19,14.30
2010,08,15,05,20,14.30
2010,08,15,05,21,14.30
2010,08,15,05,22,14.30
2010,08,15,05,23,14.30
2010,08,15,05,24,14.40
2010,08,15,05,25,14.40
2010,08,15,05,26,14.40
2010,08,15,05,27,14.30
2010,08,15,05,28,14.30
2010,08,15,05,29,14.30
2010,08,15,05,30,14.30
2010,08,15,05,31,14.40
2010,08,15,05,32,14.30
2010,08,15,05,33,14.40
2010,08,15,05,34,14.40
2010,08,15,05,35,14.40
2010,08,15,05,36,14.40
2010,08,15,05,37,14.40
2010,08,15,05,38,14.40
2010,08,15,05,39,14.40
2010,08,15,05,40,14.40
2010,08,15,05,41,14.40
2010,08,15,05,42,14.40
2010,08,15,05,43,14.40
2010,08,15,05,44,14.40
2010,08,15,05,45,14.40
2010,08,15,05,46,14.40
2010,08,15,05,47,14.40
2010,08,15,05,48,14.40
2010,08,15,05,49,14.40
2010,08,15,05,50,14.40
2010,08,15,05,51,14.40
2010,08,15,05,52,14.40
2010,08,15,05,53,14.40
2010,08,15,05,54,14.40
2010,08,15,05,55,14.40
2010,08,15,05,56,14.40
2010,08,15,05,57,14.40
2010,08,15,05,58,14.40
2010,08,15,05,59,14.40
2010,08,15,06,00,14.50
2010,08,15,06,01,14.50
2010,08,15,06,02,14.60
2010,08,15,06,03,14.60
2010,08,15,06,04,14.60
2010,08,15,06,05,14.70
2010,08,15,06,06,14.80
2010,08,15,06,07,14.80
2010,08,15,06,08,15.00
2010,08,15,06,09,15.00
2010,08,15,06,10,15.00
2010,08,15,06,11,15.00
2010,08,15,06,12,15.10
2010,08,15,06,13,15.20
2010,08,15,06,14,15.30
2010,08,15,06,15,15.30
2010,08,15,06,16,15.40
2010,08,15,06,17,15.50
2010,08,15,06,18,15.60
2010,08,15,06,19,15.60
2010,08,15,06,20,15.70
2010,08,15,06,21,15.80
2010,08,15,06,22,15.80
2010,08,15,06,23,15.90
2010,08,15,06,24,16.10
2010,08,15,06,25,16.30
2010,08,15,06,26,16.50
2010,08,15,06,27,16.70
2010,08,15,06,28,16.90
2010,08,15,06,29,17.00
2010,08,15,06,30,17.10
2010,08,15,06,31,17.20
2010,08,15,06,32,17.30
2010,08,15,06,33,17.30
2010,08,15,06,34,17.40
2010,08,15,06,35,17.60
2010,08,15,06,36,17.80
2010,08,15,06,37,17.90
2010,08,15,06,38,18.00
2010,08,15,06,39,18.10
2010,08,15,06,40,18.30
2010,08,15,06,41,18.40
2010,08,15,06,42,18.50
2010,08,15,06,43,18.70
2010,08,15,06,44,18.80
2010,08,15,06,45,18.90
2010,08,15,06,46,19.00
2010,08,15,06,47,19.20
2010,08,15,06,48,19.30
2010,08,15,06,49,19.50
2010,08,15,06,50,19.70
2010,08,15,06,51,19.90
2010,08,15,06,52,20.10
2010,08,15,06,53,20.30
2010,08,15,06,54,20.40
2010,08,15,06,55,20.50
2010,08,15,06,56,20.70
2010,08,15,06,57,20.80
2010,08,15,06,58,20.90
2010,08,15,06,59,21.00
2010,08,15,07,00,21.20
2010,08,15,07,01,21.30
2010,08,15,07,02,21.60
2010,08,15,07,03,21.70
2010,08,15,07,04,21.80
2010,08,15,07,05,22.00
2010,08,15,07,06,22.10
2010,08,15,07,07,22.20
2010,08,15,07,08,22.40
2010,08,15,07,09,22.50
2010,08,15,07,10,22.60
2010,08,15,07,11,22.70
2010,08,15,07,12,22.70
2010,08,15,07,13,22.70
2010,08,15,07,14,22.70
2010,08,15,07,15,22.80
2010,08,15,07,16,22.80
2010,08,15,07,17,22.80
2010,08,15,07,18,22.90
2010,08,15,07,19,22.90
2010,08,15,07,20,23.00
2010,08,15,07,21,23.00
2010,08,15,07,22,23.00
2010,08,15,07,23,23.10
2010,08,15,07,24,23.20
2010,08,15,07,25,23.20
2010,08,15,07,26,23.30
2010,08,15,07,27,23.30
2010,08,15,07,28,23.30
2010,08,15,07,29,23.40
2010,08,15,07,30,23.40
2010,08,15,07,31,23.40
2010,08,15,07,32,23.40
2010,08,15,07,33,23.40
2010,08,15,07,34,23.40
2010,08,15,07,35,23.40
2010,08,15,07,36,23.40
2010,08,15,07,37,23.40
2010,08,15,07,38,23.40
2010,08,15,07,39,23.40
2010,08,15,07,40,23.50
2010,08,15,07,41,23.60
2010,08,15,07,42,23.70
2010,08,15,07,43,23.70
2010,08,15,07,44,23.60
2010,08,15,07,45,23.70
2010,08,15,07,46,23.70
2010,08,15,07,47,23.80
2010,08,15,07,48,23.80
2010,08,15,07,49,23.80
2010,08,15,07,50,23.90
2010,08,15,07,51,23.90
2010,08,15,07,52,24.00
2010,08,15,07,53,24.00
2010,08,15,07,54,24.10
2010,08,15,07,55,24.10
2010,08,15,07,56,24.10
2010,08,15,07,57,24.20
2010,08,15,07,58,24.20
2010,08,15,07,59,24.20
2010,08,15,08,00,24.20
2010,08,15,08,01,24.20
2010,08,15,08,02,24.30
2010,08,15,08,03,24.30
2010,08,15,08,04,24.30
2010,08,15,08,05,24.30
2010,08,15,08,06,24.30
2010,08,15,08,07,24.30
2010,08,15,08,08,24.30
2010,08,15,08,09,24.20
2010,08,15,08,10,24.20
2010,08,15,08,11,24.10
2010,08,15,08,12,24.10
2010,08,15,08,13,24.10
2010,08,15,08,14,24.10
2010,08,15,08,15,24.10
2010,08,15,08,16,24.10
2010,08,15,08,17,24.10
2010,08,15,08,18,24.10
2010,08,15,08,19,24.10
2010,08,15,08,20,24.10
2010,08,15,08,21,24.20
2010,08,15,08,22,24.20
2010,08,15,08,23,24.20
2010,08,15,08,24,24.30
2010,08,15,08,25,24.30
2010,08,15,08,26,24.30
2010,08,15,08,27,24.30
2010,08,15,08,28,24.30
2010,08,15,08,29,24.30
2010,08,15,08,30,24.30
2010,08,15,08,31,24.30
2010,08,15,08,32,24.30
2010,08,15,08,33,24.30
2010,08,15,08,34,24.40
2010,08,15,08,35,24.40
2010,08,15,08,36,24.50
2010,08,15,08,37,24.50
2010,08,15,08,38,24.50
2010,08,15,08,39,24.60
2010,08,15,08,40,24.60
2010,08,15,08,41,24.60
2010,08,15,08,42,24.60
2010,08,15,08,43,24.60
2010,08,15,08,44,24.60
2010,08,15,08,45,24.70
2010,08,15,08,46,24.70
2010,08,15,08,47,24.70
2010,08,15,08,48,24.70
2010,08,15,08,49,24.70
2010,08,15,08,50,24.80
2010,08,15,08,51,24.80
2010,08,15,08,52,24.90
2010,08,15,08,53,24.90
2010,08,15,08,54,24.90
2010,08,15,08,55,24.90
2010,08,15,08,56,24.90
2010,08,15,08,57,24.90
2010,08,15,08,58,25.00
2010,08,15,08,59,25.10
2010,08,15,09,00,25.10
2010,08,15,09,01,25.20
2010,08,15,09,02,25.30
2010,08,15,09,03,25.30
2010,08,15,09,04,25.30
2010,08,15,09,05,25.40
2010,08,15,09,06,25.40
2010,08,15,09,07,25.50
2010,08,15,09,08,25.50
2010,08,15,09,09,25.60
2010,08,15,09,10,25.60
2010,08,15,09,11,25.50
2010,08,15,09,12,25.50
2010,08,15,09,13,25.50
2010,08,15,09,14,25.50
2010,08,15,09,15,25.60
2010,08,15,09,16,25.60
2010,08,15,09,17,25.70
2010,08,15,09,18,25.70
2010,08,15,09,19,25.60
2010,08,15,09,20,25.60
2010,08,15,09,21,25.60
2010,08,15,09,22,25.60
2010,08,15,09,23,25.60
2010,08,15,09,24,25.60
2010,08,15,09,25,25.60
2010,08,15,09,26,25.60
2010,08,15,09,27,25.60
2010,08,15,09,28,25.60
2010,08,15,09,29,25.60
2010,08,15,09,30,25.60
2010,08,15,09,31,25.70
2010,08,15,09,32,25.70
2010,08,15,09,33,25.80
2010,08,15,09,34,25.80
2010,08,15,09,35,25.80
2010,08,15,09,36,25.80
2010,08,15,09,37,25.90
2010,08,15,09,38,25.80
2010,08,15,09,39,25.80
2010,08,15,09,40,25.70
2010,08,15,09,41,25.70
2010,08,15,09,42,25.60
2010,08,15,09,43,25.60
2010,08,15,09,44,25.60
2010,08,15,09,45,25.60
2010,08,15,09,46,25.60
2010,08,15,09,47,25.60
2010,08,15,09,48,25.60
2010,08,15,09,49,25.60
2010,08,15,09,50,25.60
2010,08,15,09,51,25.60
2010,08,15,09,52,25.70
2010,08,15,09,53,25.70
2010,08,15,09,54,25.70
2010,08,15,09,55,25.70
2010,08,15,09,56,25.70
2010,08,15,09,57,25.80
2010,08,15,09,58,25.80
2010,08,15,09,59,25.80
2010,08,15,10,00,25.80
2010,08,15,10,01,25.90
2010,08,15,10,02,25.90
2010,08,15,10,03,25.80
2010,08,15,10,04,25.80
2010,08,15,10,05,25.80
2010,08,15,10,06,25.80
2010,08,15,10,07,25.80
2010,08,15,10,08,25.90
2010,08,15,10,09,25.90
2010,08,15,10,10,25.90
2010,08,15,10,11,25.90
2010,08,15,10,12,26.00
2010,08,15,10,13,26.10
2010,08,15,10,14,26.20
2010,08,15,10,15,26.20
2010,08,15,10,16,26.20
2010,08,15,10,17,26.20
2010,08,15,10,18,26.30
2010,08,15,10,19,26.20
2010,08,15,10,20,26.20
2010,08,15,10,21,26.30
2010,08,15,10,22,26.20
2010,08,15,10,23,26.30
2010,08,15,10,24,26.30
2010,08,15,10,25,26.30
2010,08,15,10,26,26.30
2010,08,15,10,27,26.30
2010,08,15,10,28,26.30
2010,08,15,10,29,26.40
2010,08,15,10,30,26.40
2010,08,15,10,31,26.50
2010,08,15,10,32,26.60
2010,08,15,10,33,26.70
2010,08,15,10,34,26.70
2010,08,15,10,35,26.80
2010,08,15,10,36,26.80
2010,08,15,10,37,26.90
2010,08,15,10,38,26.90
2010,08,15,10,39,27.00
2010,08,15,10,40,27.00
2010,08,15,10,41,27.10
2010,08,15,10,42,27.10
2010,08,15,10,43,27.10
2010,08,15,10,44,27.10
2010,08,15,10,45,27.20
2010,08,15,10,46,27.20
2010,08,15,10,47,27.20
2010,08,15,10,48,27.20
2010,08,15,10,49,27.20
2010,08,15,10,50,27.20
2010,08,15,10,51,27.20
2010,08,15,10,52,27.20
2010,08,15,10,53,27.20
2010,08,15,10,54,27.20
2010,08,15,10,55,27.20
2010,08,15,10,56,27.30
2010,08,15,10,57,27.40
2010,08,15,10,58,27.40
2010,08,15,10,59,27.50
2010,08,15,11,00,27.60
2010,08,15,11,01,27.70
2010,08,15,11,02,27.70
2010,08,15,11,03,27.80
2010,08,15,11,04,27.80
2010,08,15,11,05,27.90
2010,08,15,11,06,28.00
2010,08,15,11,07,28.00
2010,08,15,11,08,28.10
2010,08,15,11,09,28.10
2010,08,15,11,10,28.10
2010,08,15,11,11,28.10
2010,08,15,11,12,28.10
2010,08,15,11,13,28.10
2010,08,15,11,14,28.10
2010,08,15,11,15,28.10
2010,08,15,11,16,28.20
2010,08,15,11,17,28.20
2010,08,15,11,18,28.30
2010,08,15,11,19,28.30
2010,08,15,11,20,28.30
2010,08,15,11,21,28.40
2010,08,15,11,22,28.40
2010,08,15,11,23,28.50
2010,08,15,11,24,28.60
2010,08,15,11,25,28.60
2010,08,15,11,26,28.70
2010,08,15,11,27,28.70
2010,08,15,11,28,28.70
2010,08,15,11,29,28.70
2010,08,15,11,30,28.70
2010,08,15,11,31,28.80
2010,08,15,11,32,28.70
2010,08,15,11,33,28.70
2010,08,15,11,34,28.80
2010,08,15,11,35,28.80
2010,08,15,11,36,28.80
2010,08,15,11,37,28.80
2010,08,15,11,38,28.80
2010,08,15,11,39,28.80
2010,08,15,11,40,28.90
2010,08,15,11,41,29.00
2010,08,15,11,42,29.00
2010,08,15,11,43,29.10
2010,08,15,11,44,29.10
2010,08,15,11,45,29.20
2010,08,15,11,46,29.30
2010,08,15,11,47,29.30
2010,08,15,11,48,29.40
2010,08,15,11,49,29.40
2010,08,15,11,50,29.50
2010,08,15,11,51,29.50
2010,08,15,11,52,29.60
2010,08,15,11,53,29.60
2010,08,15,11,54,29.50
2010,08,15,11,55,29.40
2010,08,15,11,56,29.40
2010,08,15,11,57,29.40
2010,08,15,11,58,29.30
2010,08,15,11,59,29.30
2010,08,15,12,00,29.30
2010,08,15,12,01,29.30
2010,08,15,12,02,29.30
2010,08,15,12,03,29.30
2010,08,15,12,04,29.30
2010,08,15,12,05,29.30
2010,08,15,12,06,29.40
2010,08,15,12,07,29.40
2010,08,15,12,08,29.50
2010,08,15,12,09,29.60
2010,08,15,12,10,29.60
2010,08,15,12,11,29.60
2010,08,15,12,12,29.60
2010,08,15,12,13,29.60
2010,08,15,12,14,29.70
2010,08,15,12,15,29.70
2010,08,15,12,16,29.80
2010,08,15,12,17,29.80
2010,08,15,12,18,29.80
2010,08,15,12,19,29.80
2010,08,15,12,20,29.80
2010,08,15,12,21,29.80
2010,08,15,12,22,29.80
2010,08,15,12,23,29.80
2010,08,15,12,24,29.80
2010,08,15,12,25,29.80
2010,08,15,12,26,29.80
2010,08,15,12,27,29.80
2010,08,15,12,28,29.80
2010,08,15,12,29,29.80
2010,08,15,12,30,29.70
2010,08,15,12,31,29.70
2010,08,15,12,32,29.70
2010,08,15,12,33,29.70
2010,08,15,12,34,29.70
2010,08,15,12,35,29.70
2010,08,15,12,36,29.80
2010,08,15,12,37,29.70
2010,08,15,12,38,29.70
2010,08,15,12,39,29.70
2010,08,15,12,40,29.70
2010,08,15,12,41,29.70
2010,08,15,12,42,29.80
2010,08,15,12,43,29.80
2010,08,15,12,44,29.80
2010,08,15,12,45,29.70
2010,08,15,12,46,29.70
2010,08,15,12,47,29.70
2010,08,15,12,48,29.70
2010,08,15,12,49,29.80
2010,08,15,12,50,29.80
2010,08,15,12,51,29.70
2010,08,15,12,52,29.70
2010,08,15,12,53,29.70
2010,08,15,12,54,29.70
2010,08,15,12,55,29.70
2010,08,15,12,56,29.70
2010,08,15,12,57,29.60
2010,08,15,12,58,29.60
2010,08,15,12,59,29.60
2010,08,15,13,00,29.60
2010,08,15,13,01,29.70
2010,08,15,13,02,29.80
2010,08,15,13,03,29.90
2010,08,15,13,04,29.90
2010,08,15,13,05,30.00
2010,08,15,13,06,30.00
2010,08,15,13,07,30.10
2010,08,15,13,08,30.10
2010,08,15,13,09,30.10
2010,08,15,13,10,30.20
2010,08,15,13,11,30.20
2010,08,15,13,12,30.30
2010,08,15,13,13,30.30
2010,08,15,13,14,30.40
2010,08,15,13,15,30.40
2010,08,15,13,16,30.40
2010,08,15,13,17,30.40
2010,08,15,13,18,30.50
2010,08,15,13,19,30.60
2010,08,15,13,20,30.60
2010,08,15,13,21,30.60
2010,08,15,13,22,30.60
2010,08,15,13,23,30.70
2010,08,15,13,24,30.80
2010,08,15,13,25,30.80
2010,08,15,13,26,30.80
2010,08,15,13,27,30.80
2010,08,15,13,28,30.70
2010,08,15,13,29,30.70
2010,08,15,13,30,30.70
2010,08,15,13,31,30.70
2010,08,15,13,32,30.70
2010,08,15,13,33,30.70
2010,08,15,13,34,30.60
2010,08,15,13,35,30.60
2010,08,15,13,36,30.60
2010,08,15,13,37,30.60
2010,08,15,13,38,30.60
2010,08,15,13,39,30.60
2010,08,15,13,40,30.60
2010,08,15,13,41,30.60
2010,08,15,13,42,30.60
2010,08,15,13,43,30.70
2010,08,15,13,44,30.70
2010,08,15,13,45,30.60
2010,08,15,13,46,30.60
2010,08,15,13,47,30.70
2010,08,15,13,48,30.70
2010,08,15,13,49,30.80
2010,08,15,13,50,30.80
2010,08,15,13,51,30.90
2010,08,15,13,52,31.00
2010,08,15,13,53,31.00
2010,08,15,13,54,31.10
2010,08,15,13,55,31.20
2010,08,15,13,56,31.30
2010,08,15,13,57,31.30
2010,08,15,13,58,31.40
2010,08,15,13,59,31.40
2010,08,15,14,00,31.40
2010,08,15,14,01,31.40
2010,08,15,14,02,31.40
2010,08,15,14,03,31.40
2010,08,15,14,04,31.30
2010,08,15,14,05,31.30
2010,08,15,14,06,31.30
2010,08,15,14,07,31.30
2010,08,15,14,08,31.30
2010,08,15,14,09,31.30
2010,08,15,14,10,31.40
2010,08,15,14,11,31.50
2010,08,15,14,12,31.60
2010,08,15,14,13,31.70
2010,08,15,14,14,31.80
2010,08,15,14,15,31.90
2010,08,15,14,16,31.90
2010,08,15,14,17,32.00
2010,08,15,14,18,32.10
2010,08,15,14,19,32.10
2010,08,15,14,20,32.20
2010,08,15,14,21,32.20
2010,08,15,14,22,32.30
2010,08,15,14,23,32.40
2010,08,15,14,24,32.50
2010,08,15,14,25,32.60
2010,08,15,14,26,32.70
2010,08,15,14,27,32.80
2010,08,15,14,28,32.80
2010,08,15,14,29,32.80
2010,08,15,14,30,32.80
2010,08,15,14,31,32.70
2010,08,15,14,32,32.70
2010,08,15,14,33,32.70
2010,08,15,14,34,32.80
2010,08,15,14,35,32.80
2010,08,15,14,36,32.80
2010,08,15,14,37,32.80
2010,08,15,14,38,32.80
2010,08,15,14,39,32.90
2010,08,15,14,40,32.90
2010,08,15,14,41,32.90
2010,08,15,14,42,33.00
2010,08,15,14,43,33.00
2010,08,15,14,44,32.90
2010,08,15,14,45,32.80
2010,08,15,14,46,32.80
2010,08,15,14,47,32.80
2010,08,15,14,48,32.70
2010,08,15,14,49,32.70
2010,08,15,14,50,32.60
2010,08,15,14,51,32.60
2010,08,15,14,52,32.50
2010,08,15,14,53,32.50
2010,08,15,14,54,32.40
2010,08,15,14,55,32.50
2010,08,15,14,56,32.50
2010,08,15,14,57,32.50
2010,08,15,14,58,32.50
2010,08,15,14,59,32.50
2010,08,15,15,00,32.50
2010,08,15,15,01,32.50
2010,08,15,15,02,32.60
2010,08,15,15,03,32.50
2010,08,15,15,04,32.60
2010,08,15,15,05,32.60
2010,08,15,15,06,32.50
2010,08,15,15,07,32.60
2010,08,15,15,08,32.60
2010,08,15,15,09,32.70
2010,08,15,15,10,32.80
2010,08,15,15,11,32.90
2010,08,15,15,12,33.00
2010,08,15,15,13,33.10
2010,08,15,15,14,33.10
2010,08,15,15,15,33.20
2010,08,15,15,16,33.20
2010,08,15,15,17,33.20
2010,08,15,15,18,33.10
2010,08,15,15,19,33.00
2010,08,15,15,20,32.90
2010,08,15,15,21,32.90
2010,08,15,15,22,32.80
2010,08,15,15,23,32.80
2010,08,15,15,24,32.70
2010,08,15,15,25,32.60
2010,08,15,15,26,32.60
2010,08,15,15,27,32.60
2010,08,15,15,28,32.60
2010,08,15,15,29,32.70
2010,08,15,15,30,32.70
2010,08,15,15,31,32.80
2010,08,15,15,32,32.80
2010,08,15,15,33,32.80
2010,08,15,15,34,32.90
2010,08,15,15,35,33.00
2010,08,15,15,36,33.10
2010,08,15,15,37,33.20
2010,08,15,15,38,33.30
2010,08,15,15,39,33.40
2010,08,15,15,40,33.50
2010,08,15,15,41,33.50
2010,08,15,15,42,33.50
2010,08,15,15,43,33.40
2010,08,15,15,44,33.40
2010,08,15,15,45,33.40
2010,08,15,15,46,33.30
2010,08,15,15,47,33.30
2010,08,15,15,48,33.30
2010,08,15,15,49,33.30
2010,08,15,15,50,33.30
2010,08,15,15,51,33.30
2010,08,15,15,52,33.20
2010,08,15,15,53,33.20
2010,08,15,15,54,33.10
2010,08,15,15,55,33.10
2010,08,15,15,56,33.10
2010,08,15,15,57,33.10
2010,08,15,15,58,33.10
2010,08,15,15,59,33.10
2010,08,15,16,00,33.10
2010,08,15,16,01,33.10
2010,08,15,16,02,33.20
2010,08,15,16,03,33.20
2010,08,15,16,04,33.20
2010,08,15,16,05,33.20
2010,08,15,16,06,33.20
2010,08,15,16,07,33.10
2010,08,15,16,08,33.10
2010,08,15,16,09,33.00
2010,08,15,16,10,32.90
2010,08,15,16,11,32.90
2010,08,15,16,12,33.00
2010,08,15,16,13,33.00
2010,08,15,16,14,33.10
2010,08,15,16,15,33.10
2010,08,15,16,16,33.20
2010,08,15,16,17,33.20
2010,08,15,16,18,33.30
2010,08,15,16,19,33.30
2010,08,15,16,20,33.40
2010,08,15,16,21,33.50
2010,08,15,16,22,33.50
2010,08,15,16,23,33.50
2010,08,15,16,24,33.50
2010,08,15,16,25,33.60
2010,08,15,16,26,33.50
2010,08,15,16,27,33.40
2010,08,15,16,28,33.40
2010,08,15,16,29,33.30
2010,08,15,16,30,33.30
2010,08,15,16,31,33.30
2010,08,15,16,32,33.20
2010,08,15,16,33,33.20
2010,08,15,16,34,33.20
2010,08,15,16,35,33.20
2010,08,15,16,36,33.20
2010,08,15,16,37,33.20
2010,08,15,16,38,33.20
2010,08,15,16,39,33.10
2010,08,15,16,40,33.10
2010,08,15,16,41,33.10
2010,08,15,16,42,33.10
2010,08,15,16,43,33.10
2010,08,15,16,44,33.00
2010,08,15,16,45,32.90
2010,08,15,16,46,32.90
2010,08,15,16,47,32.80
2010,08,15,16,48,32.80
2010,08,15,16,49,32.80
2010,08,15,16,50,32.70
2010,08,15,16,51,32.70
2010,08,15,16,52,32.70
2010,08,15,16,53,32.60
2010,08,15,16,54,32.60
2010,08,15,16,55,32.60
2010,08,15,16,56,32.50
2010,08,15,16,57,32.50
2010,08,15,16,58,32.50
2010,08,15,16,59,32.40
2010,08,15,17,00,32.40
2010,08,15,17,01,32.40
2010,08,15,17,02,32.30
2010,08,15,17,03,32.30
2010,08,15,17,04,32.20
2010,08,15,17,05,32.20
2010,08,15,17,06,32.20
2010,08,15,17,07,32.10
2010,08,15,17,08,32.10
2010,08,15,17,09,32.10
2010,08,15,17,10,32.10
2010,08,15,17,11,32.10
2010,08,15,17,12,32.10
2010,08,15,17,13,32.10
2010,08,15,17,14,32.10
2010,08,15,17,15,32.10
2010,08,15,17,16,32.10
2010,08,15,17,17,32.10
2010,08,15,17,18,32.00
2010,08,15,17,19,32.00